QPF
0.02 0.02 0.02 0.01 0.01 0.01 0.01 0.00 0.00 0.00 0.00 0.00 0.00 0.00 0.00 0.00 0.00 0.00 0.00 0.00 0.00 0.02 0.05 0.06 0.05 0.03 0.01 0.00 0.00 0.00 0.00 0.00 0.00 0.00 0.00 0.00 0.00 0.00 0.00 0.00 0.00 0.00 0.00
0.01 0.01 0.01 0.01 0.00 0.00 0.00 0.00 0.00 0.00 0.00 0.00 0.00 0.00 0.00 0.01 0.01 0.01 0.01 0.01 0.00 0.01 0.04 0.06 0.05 0.04 0.02 0.01 0.00 0.00 0.00 0.00 0.00 0.00 0.00 0.00 0.00 0.00 0.00 0.00 0.00 0.00 0.00
0.00 0.00 0.00 0.00 0.00 0.00 0.00 0.00 0.00 0.00 0.00 0.00 0.00 0.01 0.01 0.02 0.03 0.04 0.05 0.04 0.03 0.02 0.02 0.05 0.07 0.06 0.05 0.03 0.01 0.01 0.00 0.00 0.00 0.00 0.00 0.00 0.00 0.00 0.00 0.00 0.00 0.00 0.00
0.00 0.00 0.00 0.00 0.00 0.00 0.00 0.01 0.01 0.01 0.01 0.01 0.01 0.02 0.03 0.04 0.05 0.06 0.08 0.08 0.04 0.03 0.01 0.03 0.07 0.11 0.11 0.09 0.05 0.02 0.01 0.01 0.00 0.00 0.00 0.00 0.00 0.00 0.00 0.00 0.00 0.00 0.00
0.00 0.00 0.00 0.00 0.00 0.00 0.01 0.01 0.01 0.01 0.01 0.01 0.02 0.02 0.03 0.03 0.04 0.06 0.09 0.10 0.08 0.06 0.04 0.02 0.04 0.08 0.13 0.16 0.16 0.12 0.07 0.03 0.01 0.00 0.00 0.00 0.00 0.00 0.00 0.00 0.00 0.00 0.00
0.00 0.00 0.00 0.00 0.00 0.00 0.01 0.01 0.01 0.01 0.01 0.01 0.02 0.02 0.02 0.03 0.04 0.05 0.07 0.10 0.12 0.10 0.08 0.06 0.04 0.04 0.06 0.11 0.16 0.17 0.13 0.07 0.03 0.01 0.00 0.00 0.00 0.00 0.00 0.00 0.00 0.00 0.01
0.00 0.00 0.00 0.00 0.00 0.00 0.00 0.01 0.01 0.01 0.01 0.01 0.01 0.01 0.01 0.02 0.02 0.03 0.05 0.07 0.11 0.15 0.17 0.15 0.11 0.07 0.07 0.07 0.08 0.09 0.10 0.07 0.03 0.01 0.00 0.00 0.00 0.00 0.00 0.00 0.00 0.00 0.00
0.00 0.00 0.00 0.00 0.00 0.00 0.00 0.00 0.00 0.00 0.01 0.01 0.02 0.01 0.00 0.00 0.01 0.02 0.04 0.05 0.08 0.15 0.22 0.24 0.22 0.18 0.13 0.09 0.05 0.04 0.04 0.04 0.02 0.01 0.00 0.00 0.00 0.00 0.00 0.00 0.00 0.00 0.00
0.00 0.00 0.00 0.00 0.00 0.00 0.00 0.00 0.00 0.00 0.00 0.00 0.01 0.01 0.01 0.00 0.00 0.00 0.02 0.03 0.04 0.09 0.15 0.20 0.24 0.25 0.23 0.17 0.09 0.04 0.02 0.02 0.01 0.00 0.00 0.00 0.00 0.00 0.00 0.00 0.00 0.00 0.00
0.00 0.00 0.00 0.00 0.00 0.00 0.00 0.00 0.00 0.00 0.00 0.00 0.00 0.00 0.00 0.00 0.00 0.00 0.00 0.01 0.01 0.03 0.06 0.10 0.14 0.16 0.18 0.16 0.11 0.06 0.03 0.02 0.01 0.00 0.00 0.00 0.00 0.00 0.00 0.00 0.00 0.00 0.00
0.00 0.00 0.00 0.00 0.01 0.01 0.01 0.01 0.00 0.00 0.00 0.00 0.00 0.00 0.00 0.00 0.00 0.00 0.00 0.00 0.00 0.01 0.01 0.03 0.04 0.05 0.07 0.08 0.06 0.04 0.02 0.01 0.01 0.00 0.00 0.00 0.00 0.00 0.00 0.00 0.00 0.00 0.00
0.00 0.01 0.01 0.01 0.01 0.01 0.01 0.01 0.01 0.01 0.00 0.00 0.00 0.00 0.00 0.00 0.00 0.00 0.00 0.00 0.00 0.00 0.00 0.00 0.01 0.01 0.02 0.03 0.03 0.03 0.02 0.01 0.00 0.00 0.00 0.00 0.00 0.00 0.00 0.00 0.00 0.00 0.00
0.01 0.01 0.02 0.02 0.03 0.03 0.03 0.02 0.02 0.02 0.01 0.01 0.00 0.00 0.00 0.00 0.00 0.00 0.00 0.00 0.00 0.00 0.00 0.00 0.00 0.00 0.00 0.00 0.00 0.01 0.00 0.00 0.00 0.00 0.00 0.00 0.00 0.00 0.00 0.00 0.00 0.00 0.00
0.00 0.01 0.02 0.03 0.04 0.05 0.04 0.03 0.02 0.02 0.02 0.01 0.01 0.01 0.00 0.00 0.00 0.00 0.00 0.00 0.00 0.00 0.00 0.00 0.00 0.00 0.00 0.00 0.00 0.00 0.00 0.00 0.00 0.00 0.00 0.00 0.00 0.00 0.00 0.00 0.00 0.00 0.00
0.01 0.02 0.03 0.05 0.06 0.06 0.06 0.04 0.03 0.02 0.01 0.01 0.00 0.00 0.00 0.00 0.00 0.00 0.00 0.00 0.00 0.00 0.00 0.00 0.00 0.00 0.00 0.00 0.00 0.00 0.00 0.00 0.00 0.00 0.00 0.00 0.00 0.00 0.00 0.00 0.00 0.00 0.00
0.01 0.02 0.04 0.07 0.08 0.08 0.07 0.06 0.04 0.02 0.01 0.00 0.00 0.00 0.00 0.00 0.00 0.00 0.00 0.00 0.00 0.00 0.00 0.00 0.00 0.00 0.00 0.00 0.00 0.00 0.00 0.00 0.00 0.00 0.00 0.00 0.00 0.00 0.00 0.00 0.00 0.00 0.00
0.02 0.03 0.04 0.05 0.06 0.08 0.08 0.06 0.05 0.03 0.01 0.00 0.00 0.00 0.00 0.00 0.00 0.00 0.00 0.00 0.00 0.00 0.00 0.00 0.00 0.00 0.00 0.00 0.00 0.00 0.00 0.00 0.00 0.00 0.00 0.00 0.00 0.00 0.00 0.00 0.00 0.00 0.00
0.05 0.06 0.07 0.07 0.07 0.07 0.06 0.06 0.05 0.03 0.02 0.01 0.01 0.01 0.00 0.00 0.00 0.00 0.00 0.00 0.00 0.00 0.00 0.00 0.00 0.00 0.00 0.00 0.00 0.00 0.00 0.00 0.00 0.00 0.00 0.00 0.00 0.00 0.00 0.00 0.00 0.00 0.00
0.11 0.12 0.12 0.12 0.12 0.10 0.08 0.07 0.06 0.05 0.04 0.04 0.03 0.03 0.03 0.02 0.01 0.00 0.00 0.00 0.00 0.00 0.00 0.00 0.00 0.00 0.00 0.00 0.00 0.00 0.00 0.00 0.00 0.00 0.00 0.00 0.00 0.00 0.00 0.00 0.00 0.00 0.00
0.15 0.19 0.21 0.22 0.22 0.21 0.19 0.16 0.13 0.11 0.10 0.08 0.07 0.07 0.06 0.04 0.02 0.01 0.00 0.00 0.00 0.00 0.00 0.00 0.01 0.01 0.01 0.01 0.01 0.01 0.00 0.00 0.00 0.00 0.00 0.00 0.00 0.00 0.00 0.00 0.00 0.00 0.00
0.15 0.20 0.24 0.27 0.29 0.29 0.27 0.23 0.20 0.19 0.17 0.15 0.12 0.10 0.08 0.06 0.04 0.02 0.00 0.00 0.00 0.00 0.00 0.00 0.01 0.01 0.01 0.02 0.02 0.02 0.02 0.01 0.01 0.01 0.00 0.00 0.00 0.00 0.00 0.00 0.00 0.00 0.00
0.12 0.17 0.22 0.26 0.27 0.27 0.23 0.16 0.14 0.14 0.14 0.13 0.11 0.09 0.07 0.05 0.04 0.03 0.02 0.01 0.00 0.00 0.01 0.01 0.01 0.01 0.01 0.02 0.03 0.04 0.04 0.03 0.03 0.02 0.01 0.00 0.00 0.00 0.00 0.00 0.00 0.00 0.00
0.08 0.11 0.14 0.15 0.15 0.14 0.12 0.08 0.06 0.04 0.04 0.04 0.04 0.04 0.03 0.02 0.02 0.01 0.01 0.01 0.01 0.01 0.01 0.02 0.04 0.03 0.02 0.02 0.02 0.03 0.04 0.05 0.05 0.03 0.01 0.00 0.00 0.00 0.00 0.00 0.00 0.00 0.00
0.06 0.07 0.07 0.06 0.06 0.06 0.06 0.04 0.02 0.01 0.01 0.01 0.01 0.01 0.01 0.01 0.01 0.00 0.00 0.00 0.00 0.00 0.01 0.02 0.04 0.06 0.06 0.05 0.04 0.04 0.04 0.05 0.04 0.02 0.01 0.00 0.00 0.00 0.00 0.00 0.00 0.00 0.00
0.05 0.05 0.03 0.02 0.02 0.02 0.03 0.03 0.01 0.00 0.00 0.00 0.00 0.00 0.00 0.00 0.00 0.00 0.00 0.00 0.00 0.00 0.00 0.00 0.01 0.03 0.03 0.04 0.03 0.03 0.03 0.03 0.02 0.01 0.00 0.00 0.00 0.00 0.00 0.00 0.00 0.00 0.00
0.02 0.02 0.01 0.01 0.00 0.00 0.02 0.02 0.00 0.00 0.00 0.00 0.00 0.00 0.00 0.00 0.00 0.00 0.00 0.00 0.00 0.00 0.00 0.00 0.00 0.00 0.00 0.01 0.01 0.01 0.01 0.01 0.01 0.00 0.00 0.00 0.00 0.00 0.00 0.00 0.00 0.00 0.00
MSLP
1012.28 1012.08 1011.89 1011.75 1011.66 1011.64 1011.68 1011.75 1011.82 1011.86 1011.85 1011.80 1011.71 1011.61 1011.53 1011.49 1011.50 1011.56 1011.67 1011.80 1011.95 1012.10 1012.27 1012.45 1012.65 1012.87 1013.13 1013.40 1013.68 1013.95 1014.19 1014.39 1014.54 1014.67 1014.77 1014.86 1014.95 1015.04 1015.13 1015.20 1015.25 1015.27 1015.27
1012.24 1011.93 1011.67 1011.47 1011.36 1011.34 1011.38 1011.46 1011.54 1011.57 1011.56 1011.48 1011.37 1011.25 1011.15 1011.09 1011.09 1011.15 1011.26 1011.40 1011.56 1011.73 1011.91 1012.10 1012.32 1012.56 1012.84 1013.12 1013.41 1013.69 1013.94 1014.16 1014.34 1014.49 1014.61 1014.73 1014.84 1014.94 1015.02 1015.08 1015.10 1015.09 1015.06
1012.22 1011.81 1011.46 1011.21 1011.08 1011.05 1011.10 1011.19 1011.28 1011.32 1011.29 1011.20 1011.07 1010.93 1010.80 1010.72 1010.70 1010.74 1010.83 1010.96 1011.11 1011.28 1011.46 1011.67 1011.89 1012.15 1012.44 1012.74 1013.06 1013.36 1013.63 1013.88 1014.09 1014.27 1014.43 1014.57 1014.70 1014.81 1014.89 1014.95 1014.95 1014.92 1014.87
1012.21 1011.69 1011.26 1010.96 1010.80 1010.76 1010.82 1010.92 1011.02 1011.06 1011.04 1010.95 1010.80 1010.64 1010.49 1010.39 1010.33 1010.34 1010.40 1010.50 1010.63 1010.78 1010.95 1011.14 1011.37 1011.64 1011.95 1012.28 1012.62 1012.95 1013.27 1013.55 1013.80 1014.02 1014.21 1014.38 1014.54 1014.67 1014.76 1014.81 1014.82 1014.78 1014.72
1012.20 1011.57 1011.05 1010.70 1010.50 1010.46 1010.51 1010.62 1010.72 1010.78 1010.76 1010.68 1010.54 1010.38 1010.22 1010.10 1010.02 1010.00 1010.02 1010.07 1010.16 1010.27 1010.41 1010.59 1010.81 1011.09 1011.41 1011.76 1012.14 1012.51 1012.87 1013.20 1013.49 1013.75 1013.98 1014.19 1014.36 1014.51 1014.62 1014.69 1014.70 1014.67 1014.61
1012.17 1011.44 1010.84 1010.42 1010.18 1010.10 1010.15 1010.25 1010.36 1010.43 1010.44 1010.38 1010.26 1010.12 1009.99 1009.87 1009.78 1009.73 1009.71 1009.72 1009.76 1009.82 1009.92 1010.07 1010.28 1010.56 1010.89 1011.27 1011.68 1012.09 1012.49 1012.86 1013.19 1013.49 1013.75 1013.98 1014.19 1014.35 1014.48 1014.56 1014.60 1014.58 1014.54
1012.15 1011.32 1010.63 1010.14 1009.84 1009.72 1009.72 1009.81 1009.92 1010.01 1010.05 1010.03 1009.97 1009.89 1009.79 1009.70 1009.63 1009.57 1009.52 1009.49 1009.48 1009.50 1009.56 1009.67 1009.86 1010.13 1010.47 1010.87 1011.30 1011.75 1012.18 1012.58 1012.94 1013.26 1013.54 1013.79 1014.01 1014.20 1014.34 1014.44 1014.50 1014.52 1014.50
1012.16 1011.23 1010.46 1009.88 1009.50 1009.31 1009.27 1009.33 1009.43 1009.53 1009.62 1009.67 1009.68 1009.67 1009.64 1009.61 1009.57 1009.53 1009.47 1009.42 1009.37 1009.35 1009.36 1009.45 1009.62 1009.88 1010.22 1010.62 1011.06 1011.52 1011.97 1012.38 1012.76 1013.09 1013.38 1013.63 1013.86 1014.05 1014.21 1014.33 1014.41 1014.45 1014.47
1012.22 1011.21 1010.36 1009.68 1009.22 1008.95 1008.84 1008.84 1008.93 1009.05 1009.17 1009.29 1009.40 1009.48 1009.54 1009.59 1009.60 1009.59 1009.55 1009.49 1009.42 1009.37 1009.36 1009.42 1009.57 1009.81 1010.14 1010.54 1010.98 1011.44 1011.88 1012.29 1012.66 1012.98 1013.26 1013.52 1013.74 1013.93 1014.10 1014.23 1014.33 1014.39 1014.44
1012.36 1011.29 1010.34 1009.58 1009.01 1008.64 1008.45 1008.40 1008.46 1008.59 1008.76 1008.94 1009.13 1009.32 1009.48 1009.60 1009.69 1009.72 1009.71 1009.66 1009.59 1009.54 1009.52 1009.56 1009.70 1009.93 1010.24 1010.62 1011.04 1011.48 1011.90 1012.29 1012.63 1012.94 1013.21 1013.44 1013.66 1013.85 1014.01 1014.15 1014.26 1014.34 1014.40
1012.58 1011.44 1010.42 1009.56 1008.90 1008.44 1008.16 1008.04 1008.06 1008.19 1008.39 1008.63 1008.90 1009.17 1009.42 1009.63 1009.78 1009.87 1009.90 1009.87 1009.82 1009.77 1009.76 1009.80 1009.93 1010.14 1010.44 1010.80 1011.19 1011.60 1011.98 1012.34 1012.66 1012.95 1013.20 1013.42 1013.62 1013.81 1013.97 1014.11 1014.23 1014.32 1014.38
1012.83 1011.64 1010.56 1009.62 1008.86 1008.31 1007.95 1007.77 1007.75 1007.86 1008.08 1008.37 1008.70 1009.04 1009.36 1009.63 1009.84 1009.98 1010.04 1010.05 1010.03 1010.00 1010.00 1010.06 1010.19 1010.40 1010.67 1011.00 1011.37 1011.73 1012.09 1012.42 1012.71 1012.98 1013.22 1013.44 1013.64 1013.82 1013.99 1014.13 1014.25 1014.33 1014.40
1013.06 1011.84 1010.71 1009.70 1008.87 1008.24 1007.81 1007.57 1007.52 1007.62 1007.84 1008.15 1008.52 1008.90 1009.26 1009.58 1009.83 1010.00 1010.11 1010.15 1010.16 1010.16 1010.19 1010.27 1010.40 1010.61 1010.87 1011.18 1011.50 1011.84 1012.16 1012.47 1012.75 1013.01 1013.25 1013.48 1013.70 1013.89 1014.07 1014.21 1014.32 1014.40 1014.46
1013.24 1011.99 1010.82 1009.77 1008.89 1008.20 1007.72 1007.44 1007.36 1007.45 1007.67 1007.99 1008.36 1008.76 1009.14 1009.48 1009.75 1009.94 1010.07 1010.15 1010.19 1010.23 1010.29 1010.39 1010.54 1010.74 1010.99 1011.27 1011.57 1011.87 1012.17 1012.46 1012.74 1013.02 1013.28 1013.54 1013.78 1014.00 1014.19 1014.35 1014.46 1014.53 1014.56
1013.33 1012.07 1010.88 1009.81 1008.90 1008.19 1007.68 1007.39 1007.29 1007.36 1007.57 1007.89 1008.26 1008.65 1009.02 1009.35 1009.62 1009.83 1009.97 1010.07 1010.14 1010.22 1010.31 1010.43 1010.59 1010.79 1011.02 1011.28 1011.55 1011.83 1012.11 1012.40 1012.69 1012.99 1013.29 1013.59 1013.87 1014.13 1014.34 1014.51 1014.62 1014.68 1014.70
1013.35 1012.09 1010.90 1009.83 1008.93 1008.22 1007.72 1007.42 1007.32 1007.39 1007.59 1007.89 1008.24 1008.60 1008.95 1009.25 1009.51 1009.70 1009.85 1009.97 1010.06 1010.16 1010.27 1010.41 1010.58 1010.77 1010.99 1011.22 1011.47 1011.72 1012.00 1012.29 1012.60 1012.93 1013.28 1013.62 1013.95 1014.24 1014.48 1014.67 1014.78 1014.83 1014.84
1013.36 1012.12 1010.96 1009.92 1009.05 1008.37 1007.89 1007.61 1007.52 1007.58 1007.77 1008.04 1008.36 1008.68 1008.99 1009.25 1009.48 1009.65 1009.79 1009.90 1010.01 1010.12 1010.25 1010.39 1010.56 1010.74 1010.93 1011.14 1011.36 1011.60 1011.87 1012.17 1012.50 1012.86 1013.25 1013.63 1014.00 1014.32 1014.59 1014.78 1014.89 1014.94 1014.94
1013.46 1012.25 1011.14 1010.15 1009.33 1008.69 1008.25 1008.00 1007.92 1007.98 1008.15 1008.39 1008.66 1008.93 1009.18 1009.40 1009.58 1009.72 1009.84 1009.94 1010.04 1010.16 1010.28 1010.42 1010.57 1010.73 1010.90 1011.08 1011.28 1011.50 1011.76 1012.06 1012.41 1012.80 1013.22 1013.63 1014.03 1014.37 1014.64 1014.84 1014.95 1014.99 1014.98
1013.73 1012.58 1011.52 1010.60 1009.84 1009.25 1008.85 1008.63 1008.56 1008.61 1008.75 1008.95 1009.16 1009.38 1009.56 1009.72 1009.84 1009.94 1010.02 1010.11 1010.19 1010.29 1010.41 1010.53 1010.66 1010.80 1010.94 1011.09 1011.26 1011.47 1011.72 1012.03 1012.39 1012.79 1013.22 1013.64 1014.04 1014.39 1014.66 1014.84 1014.94 1014.97 1014.95
1014.22 1013.14 1012.16 1011.31 1010.61 1010.08 1009.71 1009.50 1009.42 1009.45 1009.56 1009.70 1009.85 1009.99 1010.11 1010.20 1010.26 1010.31 1010.35 1010.40 1010.46 1010.54 1010.63 1010.73 1010.84 1010.95 1011.06 1011.20 1011.35 1011.55 1011.79 1012.09 1012.45 1012.85 1013.28 1013.70 1014.09 1014.41 1014.66 1014.82 1014.89 1014.91 1014.88
1014.95 1013.95 1013.04 1012.26 1011.62 1011.12 1010.77 1010.56 1010.47 1010.46 1010.51 1010.59 1010.67 1010.74 1010.78 1010.80 1010.80 1010.80 1010.80 1010.81 1010.84 1010.88 1010.95 1011.02 1011.11 1011.19 1011.29 1011.41 1011.56 1011.75 1011.99 1012.29 1012.64 1013.03 1013.44 1013.84 1014.20 1014.49 1014.70 1014.82 1014.87 1014.85 1014.81
1015.85 1014.93 1014.10 1013.37 1012.77 1012.29 1011.95 1011.72 1011.59 1011.53 1011.52 1011.53 1011.54 1011.54 1011.51 1011.47 1011.42 1011.37 1011.32 1011.30 1011.29 1011.31 1011.35 1011.40 1011.46 1011.54 1011.63 1011.75 1011.89 1012.08 1012.33 1012.63 1012.97 1013.35 1013.73 1014.09 1014.41 1014.66 1014.83 1014.91 1014.91 1014.87 1014.80
1016.84 1016.00 1015.22 1014.53 1013.95 1013.48 1013.11 1012.85 1012.67 1012.55 1012.48 1012.43 1012.37 1012.31 1012.24 1012.15 1012.06 1011.97 1011.89 1011.84 1011.81 1011.80 1011.82 1011.86 1011.92 1011.99 1012.08 1012.20 1012.36 1012.56 1012.81 1013.11 1013.44 1013.80 1014.15 1014.48 1014.75 1014.95 1015.07 1015.11 1015.07 1014.99 1014.89
1017.81 1017.01 1016.27 1015.60 1015.02 1014.53 1014.14 1013.83 1013.60 1013.43 1013.30 1013.20 1013.10 1013.00 1012.89 1012.78 1012.68 1012.57 1012.48 1012.42 1012.38 1012.37 1012.38 1012.41 1012.47 1012.55 1012.65 1012.78 1012.96 1013.17 1013.42 1013.72 1014.04 1014.38 1014.70 1014.98 1015.21 1015.36 1015.44 1015.43 1015.36 1015.25 1015.11
1018.64 1017.88 1017.16 1016.49 1015.90 1015.38 1014.95 1014.60 1014.32 1014.11 1013.94 1013.80 1013.68 1013.57 1013.46 1013.36 1013.26 1013.16 1013.09 1013.04 1013.01 1013.00 1013.02 1013.06 1013.13 1013.22 1013.33 1013.48 1013.67 1013.88 1014.14 1014.43 1014.73 1015.04 1015.32 1015.57 1015.75 1015.86 1015.90 1015.86 1015.75 1015.60 1015.44
1019.31 1018.55 1017.83 1017.16 1016.54 1016.00 1015.53 1015.14 1014.83 1014.58 1014.39 1014.24 1014.12 1014.03 1013.94 1013.87 1013.80 1013.75 1013.71 1013.69 1013.69 1013.71 1013.75 1013.81 1013.89 1014.00 1014.12 1014.28 1014.47 1014.68 1014.92 1015.19 1015.46 1015.73 1015.97 1016.17 1016.32 1016.39 1016.39 1016.32 1016.18 1016.01 1015.81
Thickness
5665 5665 5666 5667 5668 5669 5669 5670 5671 5673 5674 5676 5679 5681 5683 5685 5686 5688 5690 5692 5693 5693 5693 5693 5692 5692 5692 5691 5691 5690 5690 5690 5691 5691 5692 5692 5693 5695 5697 5699 5701 5703 5704
5656 5657 5658 5660 5662 5663 5664 5665 5666 5667 5668 5670 5672 5675 5678 5680 5682 5683 5685 5686 5687 5688 5688 5688 5688 5688 5687 5687 5686 5685 5685 5685 5685 5686 5687 5687 5688 5689 5691 5693 5695 5698 5700
5644 5646 5648 5649 5652 5655 5657 5658 5659 5660 5661 5663 5665 5668 5671 5674 5676 5678 5679 5680 5681 5682 5683 5683 5682 5682 5682 5681 5681 5680 5679 5679 5679 5679 5680 5681 5682 5683 5685 5687 5689 5692 5694
5631 5634 5637 5639 5642 5644 5646 5647 5649 5650 5652 5653 5656 5659 5662 5666 5669 5671 5673 5673 5674 5675 5676 5676 5675 5675 5675 5675 5675 5674 5672 5672 5672 5672 5673 5674 5675 5676 5678 5680 5682 5685 5687
5615 5620 5624 5627 5630 5632 5634 5636 5638 5639 5641 5643 5645 5648 5651 5655 5658 5661 5663 5665 5666 5667 5668 5669 5669 5668 5668 5667 5667 5667 5665 5664 5664 5664 5665 5666 5667 5668 5670 5672 5674 5677 5679
5596 5602 5608 5612 5615 5618 5621 5623 5625 5627 5629 5631 5634 5637 5640 5643 5646 5650 5653 5655 5657 5658 5660 5660 5660 5661 5661 5660 5659 5658 5657 5657 5656 5656 5656 5657 5658 5659 5661 5663 5665 5668 5671
5575 5582 5589 5596 5599 5602 5606 5609 5611 5613 5615 5617 5617 5620 5625 5630 5634 5637 5640 5643 5646 5648 5649 5650 5651 5652 5652 5652 5650 5649 5648 5648 5648 5648 5648 5648 5649 5650 5652 5653 5656 5658 5661
5554 5562 5570 5577 5583 5586 5589 5592 5595 5597 5599 5601 5602 5602 5605 5611 5618 5623 5626 5630 5633 5636 5638 5640 5641 5642 5642 5642 5641 5640 5638 5637 5637 5638 5639 5639 5640 5641 5643 5644 5646 5649 5651
5534 5541 5549 5557 5565 5569 5572 5575 5579 5581 5582 5584 5586 5587 5588 5592 5598 5604 5610 5614 5618 5621 5624 5627 5628 5630 5630 5630 5629 5628 5627 5626 5625 5626 5628 5630 5631 5632 5634 5636 5638 5640 5642
5509 5517 5526 5535 5543 5550 5555 5558 5561 5564 5566 5566 5568 5571 5574 5577 5580 5585 5590 5594 5600 5604 5609 5612 5614 5616 5617 5616 5615 5614 5613 5612 5612 5614 5616 5618 5620 5623 5625 5626 5628 5630 5632
5482 5490 5499 5509 5518 5526 5533 5538 5541 5543 5547 5549 5550 5552 5554 5557 5561 5565 5570 5574 5579 5584 5590 5594 5598 5600 5602 5602 5601 5600 5599 5599 5599 5600 5602 5605 5608 5611 5614 5615 5617 5619 5622
5453 5462 5470 5481 5493 5501 5507 5514 5519 5522 5525 5529 5531 5533 5536 5539 5543 5546 5549 5553 5558 5563 5569 5575 5580 5583 5585 5585 5586 5586 5586 5586 5586 5587 5588 5591 5594 5597 5600 5602 5605 5607 5610
5423 5433 5441 5453 5466 5477 5483 5488 5495 5499 5503 5507 5510 5513 5517 5521 5525 5527 5530 5532 5537 5541 5547 5553 5559 5564 5567 5569 5570 5571 5572 5572 5573 5573 5574 5577 5579 5582 5585 5588 5591 5594 5597
5397 5406 5416 5429 5443 5454 5462 5466 5471 5477 5482 5486 5490 5493 5497 5501 5505 5509 5512 5513 5516 5520 5526 5533 5538 5544 5548 5551 5553 5555 5556 5557 5557 5558 5560 5562 5564 5567 5570 5573 5576 5579 5583
5374 5384 5394 5408 5423 5435 5443 5448 5452 5457 5462 5466 5470 5474 5478 5482 5486 5491 5496 5499 5500 5501 5506 5513 5519 5524 5529 5532 5536 5538 5539 5541 5542 5543 5545 5547 5549 5552 5555 5558 5561 5565 5568
5360 5368 5378 5390 5404 5417 5426 5432 5436 5440 5444 5448 5452 5456 5460 5464 5469 5474 5479 5483 5487 5489 5491 5497 5502 5508 5512 5515 5519 5522 5524 5525 5526 5528 5530 5532 5534 5537 5540 5543 5546 5550 5553
5352 5358 5366 5376 5388 5399 5409 5417 5422 5424 5428 5432 5437 5441 5445 5449 5453 5458 5464 5469 5472 5475 5478 5482 5486 5492 5496 5500 5502 5505 5508 5510 5511 5513 5515 5517 5520 5523 5526 5529 5532 5536 5539
5343 5348 5357 5365 5374 5384 5392 5400 5406 5410 5413 5417 5422 5426 5429 5434 5437 5442 5448 5453 5457 5462 5465 5468 5471 5475 5481 5485 5488 5489 5492 5494 5496 5498 5500 5502 5505 5508 5512 5515 5518 5521 5525
5331 5337 5346 5354 5361 5368 5375 5382 5388 5392 5396 5401 5406 5410 5413 5417 5420 5424 5430 5435 5440 5447 5451 5455 5458 5460 5463 5468 5470 5473 5475 5477 5480 5482 5484 5487 5490 5493 5497 5500 5503 5506 5510
5316 5322 5329 5338 5345 5351 5357 5362 5368 5372 5378 5383 5387 5392 5397 5401 5404 5408 5413 5418 5424 5430 5436 5441 5444 5446 5448 5452 5455 5456 5457 5459 5461 5464 5468 5471 5474 5477 5481 5485 5488 5492 5496
5302 5306 5312 5319 5327 5334 5340 5344 5349 5354 5359 5363 5368 5373 5379 5385 5391 5395 5399 5403 5408 5414 5420 5426 5431 5433 5434 5436 5439 5442 5441 5441 5441 5445 5450 5454 5459 5462 5465 5468 5472 5477 5482
5291 5293 5297 5302 5308 5316 5323 5328 5331 5334 5339 5343 5348 5354 5360 5365 5370 5378 5385 5390 5395 5398 5402 5407 5412 5416 5416 5419 5422 5426 5426 5426 5426 5429 5434 5437 5443 5446 5449 5452 5457 5462 5468
5279 5282 5284 5287 5292 5299 5307 5313 5317 5319 5322 5326 5331 5336 5342 5348 5352 5358 5366 5372 5377 5382 5385 5387 5389 5391 5393 5397 5404 5407 5409 5411 5411 5412 5418 5420 5425 5429 5433 5437 5443 5449 5453
5267 5271 5273 5276 5280 5286 5293 5299 5303 5305 5308 5311 5315 5320 5325 5331 5338 5343 5350 5354 5357 5362 5365 5367 5368 5370 5373 5377 5382 5386 5389 5390 5391 5393 5400 5403 5406 5411 5417 5422 5429 5434 5438
5253 5258 5262 5266 5269 5273 5279 5285 5288 5291 5294 5297 5301 5305 5310 5315 5324 5328 5333 5336 5339 5342 5347 5350 5351 5353 5356 5360 5364 5367 5370 5374 5375 5375 5380 5386 5389 5394 5401 5409 5415 5420 5425
5237 5242 5248 5252 5255 5259 5265 5271 5274 5276 5279 5282 5286 5290 5296 5301 5307 5311 5315 5320 5322 5324 5327 5329 5330 5332 5335 5339 5343 5346 5351 5356 5360 5361 5363 5369 5374 5379 5387 5395 5401 5408 5414